Starlink 3608

operational
NORAD ID: 51776 Int'l Des: 2022-017 Owner: SPXS Country: US Constellation: starlink
LEOCIRCULAR

Starlink 3608について

説明を読み込み中...

リアルタイム位置

3D地球を読み込み中...

次回通過

高度履歴

Altitude vs Time

uPlot chart will show altitude changes over time

軌道要素

1 51776U 22017J 26036.53120887 .00001572 00000-0 11683-3 0 9996
2 51776 53.2175 123.4877 0001320 93.0519 267.0624 15.08840508217710
Epoch: Feb 5, 2026 • Age: 17 hours

現在のステータス

高度 559.0 km
速度 7.58 km/s
衛星直下点 -52.81°S, 177.4°E
打ち上げ日 Feb 25, 2022
運用期間 3.9 years
タイプ internet

技術仕様

分類 Payload
質量 297.00 kg
乾燥質量 275.00 kg
総質量 297.00 kg
長さ 0.20 m
直径 2.80 m
スパン 9.00 m
形状 Box + pan
製造者 SPXS
バスタイプ Starlink
フェーズステータス In Orbit
所有者/国 SPXS/US

大規模コンステレーション

Loading constellations...